{"data":{"norad_id":63421,"epoch":"2026-09-20T21:19:56.620992Z","epoch_age_seconds":125071,"freshness":"FRESH","line1":"1 63421U 25065Y   26263.88884978  .00006260  00000+0  23677-3 0  9994","line2":"2 63421  43.0015  84.5920 0003262 246.7028 113.3481 15.27587755 82699","mean_motion":15.27587755,"eccentricity":0.0003262,"inclination_deg":43.0015,"raan_deg":84.592,"arg_perigee_deg":246.7028,"mean_anomaly_deg":113.3481,"bstar":0.00023677,"rev_number":8269,"period_min":94.266270156113,"perigee_km":480.78776354826,"apogee_km":485.26398620783,"semimajor_km":6861.162874878,"source":"CELESTRAK","updated_at":"2026-09-21T09:00:34.982278Z"}}